User: anonymous   Login
Location: Bush Observatory
(40.2653°N, 94.3194°W)
Time: 17:48:16
(UTC-06:00)
Language:

Cosmos 1933 Rocket - Orbit

View from above orbital plane
View from above orbital plane
View from above satellite
View from above satellite

Ground track
Ground track

The orbit data is extracted from the following two-line orbital elements,

1 18959U 88020B   14352.57231252  .00000636  00000-0  75348-4 0  4353
2 18959 082.5375 042.4920 0015579 260.8218 259.8959 14.82974345445455
Epoch (UTC): 18 December 2014 13:44:07
Eccentricity: 0.0015579
inclination: 82.5375°
perigee height: 609 km
apogee height: 631 km
right ascension of ascending node: 42.4920°
argument of perigee: 260.8218°
revolutions per day: 14.82974345
mean anomaly at epoch: 259.8959°
orbit number at epoch: 44545

The dashed part of the orbit path shows where the satellite is in the earth's shadow,  

DLR